Content
SEND FEEDBACK

Daily
Averages
Monthly
Summary
United States of America

PINEVILLE, KENTUCKY


Home > North America > United States > Kentucky
Elevation: 101 feet     Latitude: 36 47N     Longitude: 083 45W

WEATHER
 
SELECT A DAY
Number of Records: 405,331;   Date Range: 5/16/05 - 9/18/14
 
SHARE

PRINT THIS DATA

[ ← Previous Day ]
WEATHER ALMANAC - AUGUST 18, 2014
[ Next Day → ]
[ °C ]   °F
Weather ElementAverageHighLow
Temperature75.2 °F85.1 °F (4:35 pm)67.3 °F (11:55 pm)
Dewpoint68.6 °F70.5 °F (10:15 am)66.4 °F (11:55 pm)
Humidity81.1 %99 % (3:15 am)57 % (4:35 pm)
Barometer29.90 in29.97 in (12:35 am)29.86 in (2:35 pm)
Wind Speed3.7 mph11.5 mph (11:15 am)
Wind Gust16.1 mph (11:15 am)
Weather ElementAverage
Visibility9.7 mi
Wind DirectionSE (131 °)

Weather ElementTotal
Precipitation0.06 in
Cooling Degree Days11.2 (Base 65)
Growing Degree Days26.2 (Base 50)
Averaged from 68 records on August 18, 2014
WEATHER CONDITIONS BREAKOUT
WIND DIRECTION BREAKOUT
WEATHER BY HOUR - AUGUST 18, 2014
[ °C ]   °F
Local TimeTemperatureDewpointHumidityBarometerVisibilityWind DirectionWind SpeedGust SpeedPrecipitationEventsConditions
12:35 AM70.9 °F68.2 °F91 %29.97 in10.0 miCalmOvercast
12:55 AM70.7 °F68.2 °F92 %29.96 in10.0 miSouth (170°)4.6 mphOvercast
1:15 AM70.5 °F68.0 °F92 %29.95 in10.0 miSE (140°)3.5 mphMostly Cloudy
1:35 AM70.2 °F68.0 °F93 %29.94 in10.0 miSSE (150°)3.5 mphRainLight Rain
1:55 AM70.0 °F68.0 °F93 %29.94 in10.0 miCalmRainLight Rain
2:15 AM70.0 °F68.0 °F93 %29.94 in10.0 miCalmDrizzle
2:35 AM69.8 °F68.5 °F96 %29.92 in5.0 miCalm0.02 inRainRain
2:55 AM69.4 °F68.9 °F98 %29.93 in7.0 miCalm0.03 inRainLight Rain
3:15 AM69.3 °F68.9 °F99 %29.93 in5.0 miCalmRainRain
3:35 AM69.1 °F68.7 °F99 %29.92 in5.0 miSSE (150°)3.5 mph0.01 inRainLight Rain
4:15 AM70.5 °F67.5 °F90 %29.92 in10.0 miSSW (210°)6.9 mphMostly Cloudy
4:35 AM70.9 °F67.5 °F89 %29.92 in10.0 miSSW (200°)6.9 mphOvercast
4:55 AM70.7 °F67.5 °F89 %29.91 in10.0 miSouth (190°)5.8 mphOvercast
5:15 AM70.7 °F67.6 °F90 %29.91 in10.0 miSSW (210°)5.8 mphOvercast
5:35 AM70.7 °F68.0 °F91 %29.91 in10.0 miSouth (180°)6.9 mphOvercast
5:55 AM70.9 °F68.0 °F91 %29.91 in10.0 miCalmOvercast
6:15 AM70.7 °F68.0 °F91 %29.92 in10.0 miCalmOvercast
6:35 AM70.7 °F68.5 °F93 %29.92 in10.0 miSouth (170°)8.1 mphOvercast
6:55 AM71.6 °F68.2 °F89 %29.92 in10.0 miSouth (190°)5.8 mphOvercast
7:15 AM71.8 °F68.5 °F89 %29.91 in10.0 miSSW (200°)5.8 mphMostly Cloudy
7:35 AM72.5 °F68.9 °F88 %29.92 in10.0 miCalmMostly Cloudy
7:55 AM72.9 °F68.7 °F87 %29.92 in10.0 miCalmOvercast
8:15 AM73.6 °F69.1 °F86 %29.92 in10.0 miSouth (180°)3.5 mphOvercast
8:35 AM73.9 °F69.3 °F85 %29.92 in10.0 miSouth (180°)6.9 mphOvercast
8:55 AM73.8 °F69.4 °F86 %29.92 in10.0 miSouth (170°)5.8 mphOvercast
9:15 AM74.8 °F69.8 °F84 %29.92 in10.0 miSouth (190°)5.8 mphOvercast
9:35 AM75.2 °F69.8 °F83 %29.92 in10.0 miSouth (190°)5.8 mphOvercast
9:55 AM74.5 °F69.6 °F85 %29.93 in10.0 miSouth (180°)4.6 mphOvercast
10:15 AM76.3 °F70.5 °F82 %29.94 in10.0 miSouth (180°)5.8 mphOvercast
10:35 AM77.7 °F69.3 °F75 %29.93 in10.0 miSSW (200°)5.8 mphOvercast
10:55 AM79.5 °F68.5 °F69 %29.93 in10.0 miWSW (240°)6.9 mphOvercast
11:15 AM81.3 °F68.7 °F65 %29.92 in10.0 miSW (230°)11.5 mph16.1 mphOvercast
11:35 AM79.7 °F68.2 °F68 %29.92 in10.0 miSW (220°)6.9 mphOvercast
11:55 AM79.7 °F68.0 °F67 %29.92 in10.0 miSW (230°)6.9 mphOvercast
12:15 PM80.1 °F68.7 °F68 %29.92 in10.0 miSouth (170°)4.6 mphOvercast
12:35 PM79.9 °F68.4 °F68 %29.91 in10.0 miSW (220°)8.1 mphOvercast
12:55 PM79.9 °F68.5 °F68 %29.91 in10.0 miSW (220°)6.9 mphOvercast
1:15 PM79.0 °F68.5 °F70 %29.91 in10.0 miWSW (250°)5.8 mphOvercast
1:35 PM81.3 °F69.3 °F67 %29.90 in10.0 miSW (220°)4.6 mphMostly Cloudy
1:55 PM80.2 °F70.3 °F72 %29.88 in10.0 miSSE (160°)5.8 mphMostly Cloudy
2:15 PM80.2 °F70.2 °F71 %29.87 in10.0 miCalmOvercast
2:35 PM83.8 °F68.9 °F61 %29.86 in10.0 miWest (260°)8.1 mphMostly Cloudy
2:55 PM83.5 °F68.5 °F61 %29.86 in10.0 miWSW (240°)4.6 mphMostly Cloudy
3:15 PM83.7 °F68.9 °F61 %29.86 in10.0 miWNW (290°)9.2 mphMostly Cloudy
3:35 PM83.7 °F68.5 °F60 %29.86 in10.0 miWest (260°)6.9 mphMostly Cloudy
3:55 PM84.6 °F68.5 °F58 %29.86 in10.0 miWSW (240°)5.8 mphScattered Clouds
4:15 PM84.4 °F68.7 °F59 %29.86 in10.0 miWSW (240°)8.1 mphMostly Cloudy
4:35 PM85.1 °F68.4 °F57 %29.86 in10.0 miWest (260°)5.8 mphMostly Cloudy
4:55 PM81.7 °F69.3 °F66 %29.86 in10.0 miNW (310°)5.8 mphScattered Clouds
5:15 PM82.4 °F68.9 °F64 %29.86 in10.0 miNNW (330°)3.5 mphMostly Cloudy
5:35 PM82.2 °F69.4 °F65 %29.86 in10.0 miNNW (340°)9.2 mphScattered Clouds
5:55 PM81.7 °F68.9 °F65 %29.86 in10.0 miCalmScattered Clouds
6:15 PM80.8 °F68.9 °F67 %29.87 in10.0 miNorth (350°)3.5 mphClear
6:35 PM79.5 °F68.4 °F69 %29.87 in10.0 miCalmClear
6:55 PM77.2 °F70.0 °F78 %29.87 in10.0 miCalmScattered Clouds
7:15 PM76.1 °F69.8 °F81 %29.88 in10.0 miCalmScattered Clouds
7:35 PM74.7 °F70.0 °F85 %29.88 in10.0 miCalmScattered Clouds
7:55 PM73.4 °F69.8 °F88 %29.88 in10.0 miCalmClear
8:15 PM72.3 °F69.3 °F90 %29.88 in10.0 miCalmClear
8:35 PM71.8 °F68.5 °F89 %29.88 in10.0 miCalmClear
8:55 PM70.3 °F68.4 °F93 %29.89 in10.0 miCalmClear
9:15 PM70.7 °F68.0 °F91 %29.90 in10.0 miCalmScattered Clouds
9:35 PM70.0 °F67.6 °F92 %29.90 in10.0 miCalmMostly Cloudy
9:55 PM70.0 °F67.5 °F92 %29.90 in10.0 miCalmMostly Cloudy
10:15 PM69.8 °F67.6 °F93 %29.90 in10.0 miCalmMostly Cloudy
10:35 PM69.3 °F67.3 °F93 %29.90 in10.0 miCalmScattered Clouds
11:15 PM67.6 °F66.9 °F98 %29.90 in10.0 miCalmClear
11:55 PM67.3 °F66.4 °F97 %29.90 in10.0 miCalmScattered Clouds
Hourly data recorded from K1A6, located miles away from Pineville, Kentucky







STORIES FROM OUR PARTNERS